This is the latest recevied weather packets stored in our database for station/object N1NCB-3. If no packets are shown the sender has not sent any weather packets the latest 10 day(s).
| Time | Temp. | Humidity | Pressure | Rain* | Wind** | Luminosity | Snow |
|---|---|---|---|---|---|---|---|
| 1777476696 | 13.33° C | 67% | 1014.2 hPa | 0 mm | - | - | - |
| 1777476396 | 13.33° C | 67% | 1014.2 hPa | 0 mm | - | - | - |
| 1777476096 | 13.33° C | 68% | 1014.5 hPa | 0 mm | - | - | - |
| 1777475796 | 13.33° C | 69% | 1014.9 hPa | 0 mm | - | - | - |
| 1777475496 | 13.33° C | 70% | 1014.9 hPa | 0 mm | - | - | - |
| 1777475196 | 12.78° C | 70% | 1015.2 hPa | 0 mm | - | - | - |
| 1777474896 | 12.78° C | 70% | 1015.2 hPa | 0 mm | - | - | - |
| 1777474596 | 12.22° C | 70% | 1015.5 hPa | 0 mm | - | - | - |
| 1777474296 | 12.78° C | 70% | 1015.2 hPa | 0 mm | - | - | - |
| 1777473996 | 12.78° C | 71% | 1015.5 hPa | 0 mm | - | - | - |
| 1777473696 | 12.22° C | 71% | 1015.5 hPa | 0 mm | - | - | - |
| 1777473396 | 12.22° C | 72% | 1015.5 hPa | 0 mm | - | - | - |
| 1777473096 | 12.22° C | 73% | 1015.2 hPa | 0 mm | - | - | - |
| 1777472796 | 11.67° C | 73% | 1015.2 hPa | 0 mm | - | - | - |
| 1777472496 | 11.67° C | 73% | 1015.2 hPa | 0 mm | - | - | - |
| 1777472196 | 11.67° C | 74% | 1015.5 hPa | 0 mm | - | - | - |
| 1777471896 | 11.67° C | 74% | 1015.5 hPa | 0 mm | - | - | - |
| 1777471596 | 11.11° C | 75% | 1015.5 hPa | 0 mm | - | - | - |
| 1777471296 | 11.11° C | 75% | 1015.2 hPa | 0 mm | - | - | - |
| 1777470996 | 11.11° C | 75% | 1015.5 hPa | 0 mm | - | - | - |
| 1777470696 | 10.56° C | 76% | 1015.5 hPa | 0 mm | - | - | - |
| 1777470396 | 10.56° C | 77% | 1015.5 hPa | 0 mm | - | - | - |
| 1777470096 | 10.56° C | 78% | 1015.9 hPa | 0 mm | - | - | - |
| 1777469796 | 10° C | 79% | 1015.5 hPa | 0 mm | - | - | - |
| 1777469496 | 10° C | 79% | 1015.9 hPa | 0 mm | - | - | - |
* Rain latest hour (hover to see other rain measurements)
** Current wind speed in m/s (hover to see current wind gust speed)